Regional Weather Roundup
Issued by NWS

Home | Current Version | Previous Version | Text Only | Print | Product List | Glossary On
Versions: 1 2 3 4 5 6 7 8 9 10 11 12 13 14 15 16 17 18 19 20 21 22 23 24 25 26 27 28 29 30 31 32 33 34 35 36 37 38 39 40 41 42 43 44 45 46 47 48 49 50
000
ASUS43 KLMK 092002
RWRKY
KENTUCKY REGIONAL WEATHER ROUNDUP
NATIONAL WEATHER SERVICE LOUISVILLE KY
300 PM EST TUE FEB 09 2016

NOTE "FAIR" INDICATES FEW OR NO CLOUDS BELOW 12,000 FEET
WITH NO SIGNIFICANT WEATHER AND/OR OBSTRUCTIONS TO VISIBILITY.

KYZ001>023-026-027-061>063-070>075-092100-
WESTERN AND SOUTH CENTRAL KENTUCKY

CITY           SKY/WX    TMP DP  RH WIND       PRES   REMARKS
PADUCAH        CLOUDY    25  15  66 NW14      30.00R WCI  13
HENDERSON      CLOUDY    21  14  73 W18       29.96R WCI   6
OWENSBORO      FLURRIES  23  13  65 NW15      29.94R WCI  10
HOPKINSVILLE   NOT AVBL
BOWLING GREEN  CLOUDY    25  14  63 W14G22    29.92R WCI  13
GLASGOW        NOT AVBL
$$

KYZ024-025-028>034-038-045-046-053-092100-
NORTH CENTRAL KENTUCKY

CITY           SKY/WX    TMP DP  RH WIND       PRES   REMARKS
LOUISVILLE/SDF FLURRIES  25  15  66 W16       29.86R WCI  12
LOUISVILLE/LOU FLURRIES  24  15  68 W14       29.86R WCI  12
FORT KNOX      FLURRIES  24  15  69 W13       29.84R WCI  12
$$

KYZ035>037-039>044-047>052-055>060-089>105-092100-
NORTHEAST KENTUCKY

CITY           SKY/WX    TMP DP  RH WIND       PRES   REMARKS
LEXINGTON      CLOUDY    24  14  65 W12       29.81R WCI  13
COVINGTON      LGT SNOW  24  17  74 W10       29.77R WCI  14
FRANKFORT      NOT AVBL
$$

KYZ054-064>069-076>088-106>120-092100-
SOUTHEAST KENTUCKY

CITY           SKY/WX    TMP DP  RH WIND       PRES   REMARKS
JACKSON        CLOUDY    23  12  62 W9        29.76R WCI  13
LONDON         CLOUDY    23  13  65 W13       29.81R WCI  11
SOMERSET       NOT AVBL
MIDDLESBORO    NOT AVBL
MONTICELLO     FLURRIES  25  16  68 W12G23    29.86R WCI  14
$$




USA.gov is the U.S. government's official web portal to all federal, state and local government web resources and services.